Notices

What's New in latest Release from April 7th, 2021:

- Updated Glossary, including Speed of Maximum Gust, and Total Hourly Precipitation

- Updated national and regional climate services offices contacts and prices information

- Addition of station inventory lists for 1981-2010, 1971-2000, and 1961-1990 Normals.

If you haven't already, please take our survey and provide feedback about our website: https://eccc.sondage-survey.ca/f/LanguageSelection.aspx?s=442ca660-fcf1-47c0-95a9-59707d6fd709

Hourly Data Report for June 30, 2006

TORONTO CITY
ONTARIO

43°40'00.000" N
79°24'00.000" W
112.50 m
6158355
71508
XTO

Download Data

Hourly Data (June 2006)
Hourly Data Report for June 30, 2006
TIME
LST
Temp Definition
°C
Dew Point Definition
°C
Rel Hum Definition
%
Precip. Amount Definition
mm

Wind Dir Definition
10's deg

Wind Spd Definition
km/h
Visibility Definition
km
Stn Press Definition
kPa
Hmdx Definition


Wind Chill Definition


Weather Definition


00:00 16.1 15.1 94   LegendMM LegendMM   100.14     LegendNANA
01:00 16.0 14.9 93   LegendMM LegendMM   100.14     LegendNANA
02:00 16.3 14.2 87   LegendMM LegendMM   100.10     LegendNANA
03:00 16.3 14.1 87   LegendMM LegendMM   100.09     LegendNANA
04:00 16.1 13.9 87   LegendMM LegendMM   100.10     LegendNANA
05:00 15.3 13.9 91   LegendMM LegendMM   100.13     LegendNANA
06:00 16.1 13.6 85   LegendMM LegendMM   100.14     LegendNANA
07:00 17.7 14.2 80   LegendMM LegendMM   100.13     LegendNANA
08:00 20.4 15.0 71   LegendMM LegendMM   100.14     LegendNANA
09:00 21.6 13.9 62   LegendMM LegendMM   100.15 25   LegendNANA
10:00 22.8 12.5 52   LegendMM LegendMM   100.11 25   LegendNANA
11:00 23.8 13.7 53   LegendMM LegendMM   100.11 27   LegendNANA
12:00 23.4 13.4 53   LegendMM LegendMM   100.14 26   LegendNANA
13:00 22.6 12.3 52   LegendMM LegendMM   100.14 25   LegendNANA
14:00 24.2 13.5 51   LegendMM LegendMM   100.08 27   LegendNANA
15:00 25.7 13.0 45   LegendMM LegendMM   100.04 28   LegendNANA
16:00 25.6 13.2 46   LegendMM LegendMM   100.06 29   LegendNANA
17:00 25.9 13.2 45   LegendMM LegendMM   100.05 29   LegendNANA
18:00 25.7 12.9 45   LegendMM LegendMM   100.04 28   LegendNANA
19:00 25.2 11.6 43   LegendMM LegendMM   100.07 27   LegendNANA
20:00 23.8 12.9 50   LegendMM LegendMM   100.11 27   LegendNANA
21:00 21.6 13.0 58   LegendMM LegendMM   100.18     LegendNANA
22:00 20.5 14.1 67   LegendMM LegendMM   100.21     LegendNANA
23:00 20.2 15.3 73   LegendMM LegendMM   100.23     LegendNANA

Notes on Data Quality.

Legend

  • E = Estimated
  • M = Missing
  • NA = Not Available*
  • [empty] = Indicates an unobserved value
Date modified: